GFSGL_925_temp_273.txt.gz
Temp
25 25 25 25 26 25 26 25 25 24 24 23 23 23 22 22 22 21 22 22 21 21 22 22 22 21 21 21 21 21 21 21 19 21 22 21 21 21 22 21 21 24 24
26 25 26 26 26 26 26 25 24 24 23 23 22 22 22 22 21 22 22 22 21 21 21 21 22 22 22 22 21 21 21 21 20 20 21 21 22 21 22 21 22 23 23
26 26 26 26 26 25 25 24 24 23 23 22 22 22 22 22 21 22 21 21 21 21 21 21 21 22 22 22 22 22 22 21 21 20 20 21 21 21 21 21 22 22 20
26 26 26 26 25 24 24 24 24 23 22 22 22 22 22 22 21 21 21 21 20 20 21 21 21 21 22 21 22 22 22 21 21 21 20 21 21 21 21 21 21 22 21
26 26 26 26 25 24 24 23 23 22 21 21 21 21 21 21 21 20 20 20 20 20 20 20 20 21 21 21 21 21 22 21 21 21 20 20 20 20 20 22 21 21 22
26 26 25 25 24 23 23 22 21 21 21 21 20 20 20 20 19 19 19 19 19 20 19 19 20 20 19 20 21 21 21 21 21 20 21 19 20 20 21 20 20 20 19
25 25 24 24 23 22 22 21 20 20 20 19 19 19 18 18 18 18 18 18 18 18 18 18 18 17 18 18 19 19 20 20 21 20 21 20 20 21 21 20 20 21 21
25 23 22 22 21 21 21 20 19 19 19 19 19 18 17 15 16 17 17 16 16 17 17 17 16 16 16 16 16 17 17 18 19 19 20 20 20 20 21 21 21 20 21
22 23 23 23 20 19 19 19 19 19 18 18 19 17 16 14 15 15 15 14 14 14 14 14 15 15 16 15 14 14 15 17 18 19 19 20 21 21 21 21 20 19 19
22 21 20 20 20 19 19 19 18 19 18 18 17 16 15 14 13 13 12 11 10 11 11 11 12 12 13 14 13 13 12 14 16 16 18 19 20 21 22 21 21 19 19
20 20 20 20 19 18 19 19 18 18 18 17 16 15 14 14 13 12 11 10 9 9 9 10 11 11 12 12 13 13 14 15 15 15 17 18 19 20 21 21 22 21 20
20 20 19 19 19 18 18 17 18 17 16 15 15 14 14 13 12 11 9 9 9 9 9 9 10 11 11 12 12 13 13 13 14 14 16 17 18 19 20 21 22 22 22
19 19 18 18 18 18 18 17 17 16 15 14 14 14 13 12 11 9 9 9 10 10 10 11 10 9 10 10 10 11 12 11 13 14 16 18 18 19 19 20 20 21 22
19 19 19 19 19 19 19 18 17 16 15 14 13 13 12 12 11 10 10 10 9 9 9 10 9 9 8 8 8 8 9 10 10 10 12 14 16 17 18 19 19 20 20
19 19 19 19 19 19 18 17 17 16 16 15 14 13 13 12 11 11 11 10 10 9 9 8 8 7 7 7 7 6 7 7 7 8 9 12 13 15 16 17 18 19 18
19 19 20 19 19 19 18 17 16 16 15 15 14 14 13 13 12 13 12 11 10 9 8 7 7 7 7 6 6 6 6 6 6 6 8 9 11 13 13 14 16 16 17
19 19 19 19 19 19 18 18 17 15 15 14 14 13 13 12 12 12 12 11 10 10 8 7 7 7 6 6 6 5 5 5 5 5 6 6 9 11 12 14 14 15 16
19 19 19 19 19 18 18 19 18 17 16 16 15 14 14 14 14 11 12 11 11 10 9 7 7 7 6 5 5 5 5 5 5 5 5 6 6 7 9 11 12 13 13
19 19 18 18 19 19 18 19 18 18 18 17 16 15 15 15 14 12 12 12 11 10 9 9 8 7 6 5 5 4 4 4 4 5 5 5 5 5 7 9 11 12 12
19 18 19 19 18 19 18 18 18 18 18 18 17 17 17 16 15 16 14 13 13 12 10 9 9 8 7 7 6 5 4 4 4 4 4 5 5 5 6 7 8 9 10
19 19 19 19 19 19 19 18 18 18 19 18 18 18 18 17 17 17 17 15 15 14 12 11 10 10 9 8 9 8 5 4 4 4 4 4 4 4 4 5 5 6 7
18 19 19 20 20 19 19 19 18 18 19 19 19 19 18 18 18 18 17 17 17 15 14 13 12 11 10 10 9 8 7 5 4 4 4 4 4 3 3 3 4 5 7
18 18 19 20 20 20 20 19 19 19 19 19 19 19 18 18 18 18 17 17 17 16 14 14 13 12 12 12 11 9 8 7 6 5 4 4 3 3 3 3 3 4 5
17 18 19 19 20 20 20 20 20 19 19 19 19 19 18 18 18 17 17 17 16 15 15 14 13 13 12 12 12 11 9 9 7 6 5 3 3 2 2 2 2 3 4
17 18 18 19 20 20 20 20 20 20 20 19 19 18 18 18 18 17 16 15 15 14 14 13 13 12 12 12 12 11 9 9 8 7 6 5 4 3 2 1 1 2 2
18 18 18 20 20 20 20 20 20 20 19 19 19 18 18 18 16 15 14 14 13 12 12 12 11 11 11 11 11 9 9 9 9 9 8 8 6 3 2 1 1 1 2

GFSGL_925_temp_276.txt.gz
Temp
25 24 24 25 25 25 25 25 24 23 23 22 22 22 22 22 21 22 21 21 21 21 21 20 21 21 21 21 21 21 20 19 19 20 21 21 21 21 21 21 21 20 20
25 25 25 25 25 25 25 24 23 23 22 22 22 22 22 21 21 21 21 20 20 20 20 20 20 21 21 21 21 21 21 20 19 18 20 20 21 22 21 20 20 19 20
25 25 25 25 25 24 23 23 23 22 22 22 21 21 21 21 21 20 20 20 20 20 19 19 19 20 20 20 21 21 20 20 20 19 19 20 20 21 21 21 21 21 21
25 25 25 24 24 24 24 23 22 22 21 21 21 20 20 20 20 20 19 19 19 19 19 19 19 18 19 19 19 20 20 20 20 20 20 20 20 21 20 20 20 21 22
25 26 25 24 24 24 23 22 22 21 20 20 20 19 19 19 18 18 18 18 18 18 18 18 17 18 18 18 17 18 18 19 20 19 19 19 19 20 20 20 20 20 21
24 25 24 23 23 23 22 21 20 20 19 19 18 18 18 16 17 17 17 17 16 16 16 16 16 16 17 17 17 17 17 16 17 18 18 18 19 19 19 19 19 18 18
24 23 23 22 22 22 21 20 19 19 19 19 17 16 15 15 15 16 16 15 15 14 14 13 13 14 14 14 15 16 17 17 17 16 16 18 18 19 18 18 18 19 18
22 21 22 23 21 20 20 19 19 19 19 17 16 15 14 13 14 14 15 14 13 12 12 11 11 11 12 11 11 13 14 16 17 17 17 17 17 18 19 19 18 18 19
20 21 22 22 20 19 19 19 18 18 17 16 15 14 14 13 12 12 12 12 11 11 11 11 10 10 10 11 10 10 11 14 15 16 16 16 18 19 19 19 19 18 18
20 20 20 20 19 19 18 18 17 17 16 15 14 13 12 12 11 11 11 10 9 9 10 10 10 10 10 11 10 10 10 11 12 14 17 17 18 18 19 19 19 17 18
20 19 19 19 19 18 18 17 17 16 15 14 13 12 12 12 11 11 11 10 9 9 9 9 9 9 9 9 9 8 9 11 12 13 13 14 16 17 18 18 18 18 17
19 19 19 18 18 17 17 17 17 16 15 14 13 13 12 12 13 13 13 13 12 11 10 10 9 8 8 7 7 7 8 9 10 11 11 12 13 14 16 17 18 19 19
19 19 19 18 18 17 18 17 16 15 14 13 13 13 13 14 14 14 13 13 12 11 11 10 9 8 8 7 7 6 6 7 7 8 8 9 11 13 14 15 17 18 19
19 19 19 18 18 18 17 17 16 15 14 14 13 13 14 14 13 13 13 13 12 11 10 9 8 8 7 7 7 6 6 6 6 6 6 7 9 10 12 13 14 16 17
18 18 18 18 18 17 17 17 17 16 16 16 15 15 15 14 14 13 12 12 12 11 10 10 9 8 7 6 6 6 6 6 6 5 6 6 6 8 10 12 13 14 15
18 18 18 18 18 18 17 16 16 16 16 16 16 16 15 15 14 13 12 11 11 11 10 8 8 7 7 6 6 6 6 5 5 5 5 5 6 7 7 8 11 12 13
19 18 18 18 18 18 17 16 16 15 15 15 16 16 16 15 14 13 13 11 10 9 9 8 8 7 7 7 6 6 6 5 5 5 5 5 5 5 6 8 10 11 12
18 18 19 19 18 18 17 17 16 16 16 17 17 16 16 16 15 14 12 10 9 10 9 9 9 9 8 8 7 8 8 6 5 4 4 5 5 5 5 6 7 8 10
18 18 18 18 18 18 18 18 17 17 17 17 17 17 18 17 16 14 12 10 10 10 11 10 10 10 9 9 8 8 7 7 6 5 4 4 4 5 5 5 6 7 8
18 18 18 18 18 18 18 18 18 18 18 17 17 18 18 16 17 17 15 13 12 13 14 13 11 11 11 10 9 8 8 7 7 6 5 4 4 4 4 5 5 5 6
19 18 19 19 18 18 19 18 18 18 18 18 18 18 18 17 18 17 17 16 15 16 16 14 14 13 12 11 10 9 8 8 7 6 5 4 4 4 4 4 4 4 5
17 17 16 17 18 18 19 18 18 18 18 18 18 19 18 18 18 17 17 17 16 16 15 15 14 14 13 12 11 10 9 8 7 7 6 5 4 4 4 4 4 3 4
18 16 16 17 17 18 18 19 19 19 18 18 19 19 18 18 18 17 16 16 15 15 14 14 13 13 13 12 11 11 9 9 9 7 6 5 4 4 4 3 3 3 3
17 17 16 16 17 17 18 19 19 19 19 19 18 18 19 18 17 16 15 14 14 14 13 12 12 11 11 11 10 10 10 9 8 7 6 4 4 4 3 3 3 3 2
16 15 16 17 19 19 19 19 19 19 19 18 18 18 17 16 15 14 14 13 13 11 11 10 10 10 10 9 9 9 9 8 8 7 8 8 7 6 3 2 2 2 2
15 16 17 17 18 18 19 19 18 19 18 18 18 17 16 15 14 13 13 12 11 10 10 9 9 8 8 8 8 8 8 8 9 9 9 9 8 7 4 3 3 3 3

GFSGL_925_temp_279.txt.gz
Temp
24 24 23 23 24 24 24 23 23 22 22 22 21 21 21 21 21 20 20 20 20 19 19 19 19 19 20 20 20 19 19 18 18 19 20 21 20 21 21 21 21 20 20
24 24 24 24 24 24 23 23 22 22 22 21 21 21 21 20 20 20 19 19 18 18 18 19 18 19 19 19 19 19 19 19 18 18 19 20 20 21 21 21 21 21 21
24 24 24 24 24 23 23 22 22 22 21 20 20 20 20 20 19 19 18 18 18 17 17 17 17 17 18 18 18 18 18 19 18 18 18 19 19 20 20 20 21 21 21
24 24 23 24 23 23 23 22 22 21 20 20 19 19 19 18 18 18 18 17 17 17 16 16 16 15 15 15 15 15 16 17 17 17 18 18 19 20 19 19 20 20 20
24 24 23 23 23 23 22 22 21 20 19 19 19 18 18 17 16 16 16 16 16 16 16 15 14 14 13 12 12 13 14 14 15 15 16 17 17 18 18 18 18 18 19
22 23 22 22 22 22 21 20 19 19 18 18 17 17 16 15 15 16 16 16 15 15 14 14 13 12 12 12 13 13 12 12 13 13 15 15 15 17 17 17 17 17 17
21 21 21 22 22 21 20 19 19 18 17 16 15 15 15 15 16 16 15 14 13 12 11 11 11 11 11 11 12 13 14 13 12 12 13 14 14 16 15 15 16 16 16
21 23 21 20 21 19 19 19 18 17 16 15 14 14 15 14 13 13 12 12 11 11 10 10 9 9 9 9 11 11 12 13 12 12 11 13 14 15 16 15 15 15 16
21 20 20 19 19 19 19 18 17 16 14 13 14 14 13 12 11 12 12 12 12 11 11 10 9 8 8 8 9 9 9 12 13 12 13 13 15 15 16 14 15 15 15
19 19 19 19 19 18 17 17 16 15 14 14 13 13 13 13 13 13 13 13 12 12 11 10 9 8 8 8 7 7 7 8 9 11 13 14 14 14 15 15 14 14 15
19 20 19 19 18 17 17 17 16 14 13 13 13 13 13 13 13 13 13 12 12 11 11 11 10 9 8 8 8 7 6 7 8 9 9 11 12 13 13 14 14 14 15
19 19 18 17 17 17 16 16 15 14 14 13 13 13 13 13 13 13 13 13 13 12 11 11 11 11 11 9 7 6 6 7 6 6 6 7 8 9 10 12 13 14 15
19 18 17 17 17 17 17 15 14 14 14 14 14 13 13 13 13 14 14 13 13 13 13 12 12 12 12 11 9 8 7 6 6 6 6 6 6 6 8 9 12 13 15
18 17 17 17 16 16 16 16 15 15 14 14 14 14 14 14 14 14 14 14 13 12 12 11 10 10 10 9 9 8 7 7 6 5 5 6 6 6 6 7 8 11 12
18 17 17 17 17 16 16 16 16 16 17 16 16 15 15 15 15 15 14 13 12 11 10 10 10 9 9 9 9 8 8 7 6 6 5 5 5 6 6 6 7 8 11
18 17 17 17 16 16 16 15 15 16 15 15 15 15 16 16 15 15 14 13 11 9 9 8 9 9 8 8 8 8 8 7 6 6 5 5 5 5 5 6 6 7 9
18 18 17 17 16 16 15 15 15 15 16 16 16 16 16 16 16 15 14 13 11 10 9 9 9 9 9 9 9 8 8 8 7 6 5 5 5 5 5 6 6 6 7
18 18 18 18 17 16 16 16 16 16 16 17 17 16 17 17 17 16 14 12 13 12 11 9 9 9 9 9 9 9 8 8 7 7 6 5 5 5 5 5 5 5 6
18 18 18 18 17 17 17 17 16 16 16 16 16 17 18 18 17 17 16 14 13 13 13 12 12 10 11 11 10 10 9 8 7 7 6 6 5 5 5 5 5 5 5
18 18 18 18 18 18 17 17 17 17 17 16 17 18 18 17 17 18 17 16 15 14 14 13 14 13 13 12 12 11 10 9 8 7 6 6 5 5 4 5 5 5 5
16 16 16 16 16 17 16 17 17 17 17 17 18 18 18 16 17 17 17 16 15 14 14 14 14 14 13 12 11 11 10 9 8 7 6 6 5 5 5 4 4 4 4
17 17 18 18 17 16 16 17 17 17 17 17 18 18 18 17 17 16 15 15 14 14 13 13 12 12 11 11 10 10 9 9 8 8 6 6 5 5 4 4 4 4 4
17 17 17 17 17 16 16 17 17 17 17 17 18 17 18 17 17 15 14 13 13 13 12 11 11 10 10 10 10 9 9 8 8 7 6 5 4 4 4 4 3 3 4
16 17 16 16 15 14 15 16 17 19 18 17 18 17 16 16 16 14 13 13 13 12 11 10 9 9 8 8 8 8 8 8 7 7 7 6 6 6 4 3 3 3 3
16 17 16 16 16 15 17 17 18 17 17 18 17 16 16 15 14 13 12 12 11 10 10 9 9 8 7 7 6 6 7 7 7 7 8 8 7 7 6 3 3 3 4
16 15 16 16 16 17 17 17 18 18 18 17 16 15 15 14 13 12 12 11 10 9 9 8 8 7 6 6 6 6 6 7 8 8 8 8 8 8 6 5 5 4 5

GFSGL_925_temp_282.txt.gz
Temp
23 23 23 23 23 23 23 23 23 22 22 21 21 21 20 20 20 19 19 19 18 18 18 18 18 18 18 18 19 18 18 17 18 18 18 20 20 20 21 20 21 20 21
24 23 23 23 23 23 23 23 22 22 21 21 20 20 20 20 19 19 18 18 17 17 17 17 17 17 17 17 17 17 16 16 17 17 18 19 20 20 20 21 21 21 20
23 23 23 23 23 23 23 23 22 21 20 20 19 19 19 18 18 18 17 17 16 16 16 15 14 15 15 15 15 15 15 16 15 16 16 17 18 19 19 20 20 20 20
22 22 22 23 23 23 23 22 21 20 20 19 19 18 18 17 17 16 16 16 16 15 15 14 13 13 12 12 13 13 13 14 14 14 15 16 17 17 18 17 18 19 19
19 20 22 23 23 22 21 21 19 19 18 18 18 17 17 17 15 16 16 15 15 14 13 13 12 11 11 11 11 11 12 13 13 12 14 15 15 16 16 16 16 16 18
20 19 22 23 22 21 21 19 18 18 17 17 17 16 16 15 15 15 15 14 13 13 12 12 11 11 11 11 11 11 11 10 10 11 12 12 13 14 14 15 15 15 17
20 18 20 21 20 19 19 18 18 17 17 16 15 15 15 14 13 13 13 13 13 12 12 12 11 11 11 11 12 12 12 12 11 10 11 11 11 12 12 12 13 13 14
19 18 20 20 19 19 18 18 17 16 16 15 15 15 14 13 13 13 13 13 13 12 11 10 10 10 9 9 10 11 12 11 10 10 10 11 12 12 12 12 12 12 13
19 19 19 20 19 18 17 17 16 15 15 15 15 14 14 14 14 14 14 13 13 12 11 11 10 10 9 8 9 8 8 10 12 11 11 11 11 12 12 13 13 13 14
19 19 20 19 18 18 18 17 15 15 15 15 14 14 14 14 14 14 13 13 12 12 12 11 9 9 9 8 8 6 7 7 7 7 10 12 11 10 11 11 11 13 14
19 19 19 18 18 18 17 16 15 14 14 14 14 14 14 14 13 13 13 13 12 11 11 11 10 10 10 10 8 7 7 7 7 6 7 7 7 8 8 9 8 9 12
19 19 18 18 18 17 17 15 15 14 14 14 14 13 13 13 13 13 13 12 12 12 11 11 11 11 11 11 10 10 9 9 7 7 7 7 7 7 6 7 7 8 9
19 18 17 17 17 16 16 15 14 14 14 14 14 14 14 14 13 13 12 13 12 12 12 12 12 12 12 12 11 10 10 9 7 7 7 7 6 6 6 7 7 7 9
17 17 17 16 16 16 16 15 14 14 14 14 14 14 14 14 14 14 14 13 13 13 13 13 12 11 11 11 11 10 10 9 7 6 6 6 6 7 7 7 6 7 7
17 17 16 16 16 16 16 16 15 15 16 16 15 15 15 15 15 15 14 14 14 13 13 13 13 12 11 11 11 10 10 9 8 7 6 6 7 7 7 6 6 6 6
16 16 16 16 15 15 15 15 15 15 16 16 15 15 15 15 15 15 15 14 14 12 11 11 11 10 9 9 9 9 9 9 9 7 7 6 6 6 6 6 6 6 6
17 16 16 16 15 15 15 15 15 15 15 15 15 16 16 16 16 16 16 15 14 11 11 10 10 10 10 9 8 8 9 10 9 8 7 7 6 6 6 6 6 6 6
17 17 17 16 16 15 15 16 15 15 16 17 17 17 17 17 17 17 17 16 16 15 13 12 11 10 10 9 9 8 8 9 9 8 7 7 7 6 5 5 6 6 6
17 17 17 17 17 16 16 16 16 16 15 17 17 17 18 18 18 17 17 16 15 15 14 13 11 11 11 10 10 9 8 8 9 7 7 7 6 6 6 5 5 5 5
17 17 17 16 16 16 16 17 15 15 15 16 16 17 18 17 17 17 17 16 14 14 13 12 13 12 11 10 10 8 8 8 8 7 7 6 6 6 5 5 6 5 5
17 17 17 17 18 17 17 17 16 16 16 16 17 18 17 16 17 16 15 15 14 13 12 12 12 11 10 10 9 9 8 8 8 7 6 6 6 6 5 6 6 5 5
17 17 17 18 17 17 17 17 17 16 15 16 17 18 17 16 16 16 15 14 13 12 12 11 10 10 9 8 8 7 7 7 6 6 6 6 5 5 5 5 5 5 5
17 17 17 17 17 17 17 16 16 15 16 18 18 17 17 16 16 15 14 13 13 12 11 10 9 9 8 8 7 6 6 5 5 5 5 5 5 5 5 4 4 4 4
17 17 17 17 16 16 15 16 16 16 17 17 17 17 16 15 15 14 13 12 12 11 10 9 8 8 7 7 6 6 5 5 5 5 6 6 7 6 6 4 4 4 4
16 16 16 16 16 16 16 16 16 17 17 17 17 16 15 15 14 13 12 12 11 10 9 9 8 7 7 6 6 6 6 6 6 6 7 7 7 7 7 4 4 4 5
16 16 16 16 16 16 17 17 17 17 17 17 17 16 15 14 13 12 12 11 10 9 9 8 7 7 6 6 6 5 5 6 7 7 7 7 7 8 7 5 6 5 6